Simultaneous Nadir Overpasses (SNOs) Predictions

Prediction of SNOs between TERRA and METOP-C Satellite Orbit:

Table of predicted SNOs for the next 14.0 days since TLE Epoch: 5/25/2024
Index Date (TERRA) Time (TERRA) Lat,Lon (TERRA) SZA (TERRA ) Date (METOP-C) Time (METOP-C) Lat,Lon (METOP-C) SZA (METOP-C ) Distance(km) Time Diff (sec)
1 05/27/2024 08:39:51 -77.99,-121.52 123.32 05/27/2024 08:39:14 -77.99,-121.46 123.31 1.57 37
2 05/27/2024 09:29:03 78.35, 47.79 57.10 05/27/2024 09:29:46 78.35, 47.77 57.10 0.58 43
3 05/29/2024 23:10:43 -77.66, 19.35 124.10 05/29/2024 23:09:42 -77.65, 19.25 124.12 2.77 61
4 05/29/2024 23:59:51 78.19,-170.65 56.51 05/30/2024 00:00:09 78.20,-170.59 56.53 1.60 18
5 06/01/2024 14:30:39 78.00, -29.24 55.92 06/01/2024 14:30:33 78.01, -29.21 55.93 0.85 6
6 06/01/2024 15:19:54 -78.33, 139.95 123.70 06/01/2024 15:21:06 -78.33, 139.86 123.69 1.95 72
7 06/04/2024 05:01:28 77.73, 111.85 55.29 06/04/2024 05:00:59 77.71, 111.75 55.27 2.73 29
8 06/04/2024 05:50:39 -78.25, -78.19 124.12 06/04/2024 05:51:27 -78.25, -78.15 124.11 0.89 48
9 06/06/2024 19:32:14 77.50,-106.79 54.76 06/06/2024 19:31:22 77.48,-106.89 54.74 2.78 52



Historial Predications of SNOs between TERRA and METOP-C
